Hourly Weather Russkaya Polyana

Today, 16 April, Friday

Time Temperature Precipitation Wind Pressure Humidity
00:00 +8°C° 0 mm 2 mps 746 mmHg 85%
01:00 +7°C° 0 mm 2 mps 746 mmHg 86%
02:00 +7°C° 0 mm 2 mps 746 mmHg 87%
03:00 +7°C° 0 mm 2 mps 746 mmHg 89%
04:00 +7°C° 0 mm 2 mps 746 mmHg 91%
05:00 +6°C° 0 mm 2 mps 746 mmHg 92%
06:00 +7°C° 0 mm 2 mps 747 mmHg 90%
07:00 +8°C° 0 mm 2 mps 747 mmHg 87%
08:00 +9°C° 0 mm 2 mps 747 mmHg 84%
09:00 +9°C° 0.1 mm 2 mps 747 mmHg 82%
10:00 +9°C° 0.1 mm 3 mps 747 mmHg 81%
11:00 +10°C° 0.1 mm 3 mps 747 mmHg 79%
12:00 +9°C° 0.4 mm 3 mps 747 mmHg 81%
13:00 +7°C° 0.4 mm 4 mps 748 mmHg 83%
14:00 +7°C° 0.4 mm 4 mps 748 mmHg 84%
15:00 +7°C° 0.6 mm 4 mps 748 mmHg 86%
16:00 +7°C° 0.6 mm 3 mps 748 mmHg 87%
17:00 +7°C° 0.6 mm 3 mps 748 mmHg 89%
18:00 +7°C° 0.5 mm 3 mps 749 mmHg 89%
19:00 +7°C° 0.5 mm 3 mps 749 mmHg 89%
20:00 +5°C° 0.5 mm 3 mps 749 mmHg 90%
21:00 +5°C° 0.2 mm 3 mps 750 mmHg 89%
22:00 +5°C° 0.2 mm 4 mps 750 mmHg 88%
23:00 +4°C° 0.2 mm 4 mps 750 mmHg 88%

Tomorrow, 17 April, Saturday

Time Temperature Precipitation Wind Pressure Humidity
00:00 +4°C° 0.1 mm 4 mps 751 mmHg 87%
01:00 +4°C° 0.1 mm 4 mps 751 mmHg 86%
02:00 +4°C° 0.1 mm 4 mps 751 mmHg 86%
03:00 +4°C° 0 mm 4 mps 752 mmHg 84%
04:00 +4°C° 0 mm 3 mps 752 mmHg 83%
05:00 +3°C° 0 mm 3 mps 752 mmHg 81%
06:00 +4°C° 0 mm 3 mps 752 mmHg 82%
07:00 +4°C° 0 mm 3 mps 753 mmHg 83%
08:00 +4°C° 0 mm 3 mps 753 mmHg 85%
09:00 +4°C° 0.1 mm 3 mps 753 mmHg 82%
10:00 +5°C° 0.1 mm 3 mps 754 mmHg 79%
11:00 +7°C° 0.1 mm 3 mps 754 mmHg 76%
12:00 +8°C° 0 mm 3 mps 754 mmHg 74%
13:00 +8°C° 0 mm 3 mps 754 mmHg 72%
14:00 +9°C° 0 mm 3 mps 754 mmHg 69%
15:00 +9°C° 0 mm 3 mps 754 mmHg 69%
16:00 +9°C° 0 mm 2 mps 754 mmHg 68%
17:00 +11°C° 0 mm 1 mps 754 mmHg 67%
18:00 +10°C° 0 mm 1 mps 754 mmHg 72%
19:00 +9°C° 0 mm 1 mps 754 mmHg 76%
20:00 +7°C° 0 mm 2 mps 754 mmHg 80%
21:00 +8°C° 0 mm 1 mps 754 mmHg 81%
22:00 +8°C° 0 mm 1 mps 754 mmHg 82%
23:00 +8°C° 0 mm 1 mps 753 mmHg 83%

Day after tomorrow, 18 April, Sunday

Time Temperature Precipitation Wind Pressure Humidity
00:00 +7°C° 0 mm 1 mps 753 mmHg 84%
01:00 +7°C° 0 mm 1 mps 753 mmHg 85%
02:00 +6°C° 0 mm 2 mps 753 mmHg 86%
03:00 +7°C° 0 mm 1 mps 753 mmHg 86%
04:00 +7°C° 0 mm 1 mps 753 mmHg 86%
05:00 +7°C° 0 mm 1 mps 753 mmHg 87%
06:00 +8°C° 0 mm 1 mps 753 mmHg 82%
07:00 +9°C° 0 mm 1 mps 753 mmHg 78%
08:00 +8°C° 0 mm 0 mps 753 mmHg 74%
09:00 +11°C° 0 mm 1 mps 753 mmHg 69%
10:00 +12°C° 0 mm 1 mps 753 mmHg 64%
11:00 +13°C° 0 mm 1 mps 753 mmHg 59%
12:00 +13°C° 0 mm 1 mps 753 mmHg 55%
13:00 +14°C° 0 mm 1 mps 752 mmHg 51%
14:00 +15°C° 0 mm 2 mps 752 mmHg 48%
15:00 +14°C° 0 mm 1 mps 752 mmHg 49%
16:00 +14°C° 0 mm 1 mps 752 mmHg 51%
17:00 +14°C° 0 mm 1 mps 752 mmHg 53%
18:00 +13°C° 0 mm 1 mps 752 mmHg 56%
19:00 +12°C° 0 mm 1 mps 752 mmHg 59%
20:00 +10°C° 0 mm 2 mps 752 mmHg 62%
21:00 +11°C° 0 mm 1 mps 752 mmHg 63%
22:00 +11°C° 0 mm 1 mps 752 mmHg 63%
23:00 +11°C° 0 mm 1 mps 752 mmHg 64%

19 April, Monday

Time Temperature Precipitation Wind Pressure Humidity
00:00 +11°C° 0 mm 1 mps 752 mmHg 65%
01:00 +11°C° 0 mm 1 mps 752 mmHg 65%
02:00 +10°C° 0 mm 1 mps 751 mmHg 66%
03:00 +9°C° 0 mm 2 mps 751 mmHg 69%
04:00 +9°C° 0 mm 2 mps 751 mmHg 71%
05:00 +8°C° 0 mm 2 mps 751 mmHg 74%
06:00 +9°C° 0 mm 2 mps 751 mmHg 70%
07:00 +10°C° 0 mm 3 mps 751 mmHg 67%
08:00 +11°C° 0 mm 3 mps 751 mmHg 64%
09:00 +12°C° 0 mm 3 mps 751 mmHg 60%
10:00 +12°C° 0 mm 3 mps 751 mmHg 57%
11:00 +13°C° 0 mm 3 mps 750 mmHg 53%
12:00 +13°C° 0 mm 3 mps 750 mmHg 52%
13:00 +14°C° 0 mm 4 mps 749 mmHg 51%
14:00 +14°C° 0 mm 4 mps 749 mmHg 49%
15:00 +13°C° 0 mm 4 mps 748 mmHg 52%
16:00 +13°C° 0 mm 4 mps 748 mmHg 54%
17:00 +13°C° 0 mm 5 mps 747 mmHg 56%
18:00 +12°C° 0 mm 5 mps 747 mmHg 60%
19:00 +10°C° 0 mm 6 mps 746 mmHg 64%
20:00 +9°C° 0 mm 6 mps 746 mmHg 68%
21:00 +9°C° 0 mm 7 mps 745 mmHg 69%
22:00 +9°C° 0 mm 7 mps 744 mmHg 70%
23:00 +9°C° 0 mm 8 mps 743 mmHg 70%

20 April, Tuesday

Time Temperature Precipitation Wind Pressure Humidity
00:00 +7°C° 2.1 mm 8 mps 742 mmHg 77%
01:00 +7°C° 2.1 mm 9 mps 741 mmHg 84%
02:00 +6°C° 2.1 mm 10 mps 740 mmHg 90%
03:00 +6°C° 2.7 mm 10 mps 739 mmHg 91%
04:00 +6°C° 2.7 mm 10 mps 738 mmHg 92%
05:00 +6°C° 2.7 mm 10 mps 738 mmHg 93%
06:00 +6°C° 2.5 mm 9 mps 737 mmHg 93%
07:00 +6°C° 2.5 mm 8 mps 736 mmHg 94%
08:00 +8°C° 2.5 mm 7 mps 736 mmHg 95%
09:00 +8°C° 2 mm 6 mps 735 mmHg 93%
10:00 +8°C° 2 mm 5 mps 735 mmHg 92%
11:00 +10°C° 2 mm 4 mps 735 mmHg 90%
12:00 +10°C° 0.3 mm 4 mps 734 mmHg 85%
13:00 +11°C° 0.3 mm 3 mps 734 mmHg 81%
14:00 +12°C° 0.3 mm 3 mps 733 mmHg 76%
15:00 +11°C° 0.3 mm 3 mps 733 mmHg 78%
16:00 +10°C° 0.3 mm 3 mps 733 mmHg 81%
17:00 +8°C° 0.3 mm 4 mps 734 mmHg 83%
18:00 +7°C° 0.5 mm 4 mps 734 mmHg 86%
19:00 +5°C° 0.5 mm 5 mps 735 mmHg 90%
20:00 +3°C° 0.5 mm 6 mps 735 mmHg 94%
21:00 +2°C° 0.5 mm 6 mps 736 mmHg 94%
22:00 +1°C° 0.5 mm 6 mps 736 mmHg 95%
23:00 +1°C° 0.5 mm 6 mps 736 mmHg 96%

21 April, Wednesday

Time Temperature Precipitation Wind Pressure Humidity
00:00 +1°C° 0.4 mm 6 mps 737 mmHg 96%
01:00 0°C° 0.4 mm 7 mps 738 mmHg 96%
02:00 0°C° 0.4 mm 7 mps 738 mmHg 96%
03:00 0°C° 0.2 mm 7 mps 739 mmHg 96%
04:00 0°C° 0.2 mm 7 mps 739 mmHg 96%
05:00 0°C° 0.2 mm 7 mps 740 mmHg 96%
06:00 +2°C° 0.2 mm 7 mps 740 mmHg 96%
07:00 +2°C° 0.2 mm 6 mps 741 mmHg 95%
08:00 +2°C° 0.2 mm 6 mps 742 mmHg 95%
09:00 +3°C° 0.2 mm 6 mps 743 mmHg 89%
10:00 +4°C° 0.2 mm 7 mps 743 mmHg 84%
11:00 +5°C° 0.2 mm 7 mps 744 mmHg 78%
12:00 +6°C° 0.1 mm 7 mps 745 mmHg 74%
13:00 +8°C° 0.1 mm 7 mps 745 mmHg 69%
14:00 +9°C° 0.1 mm 7 mps 746 mmHg 65%
15:00 +9°C° 0.1 mm 6 mps 746 mmHg 65%
16:00 +9°C° 0.1 mm 6 mps 747 mmHg 65%
17:00 +9°C° 0.1 mm 6 mps 747 mmHg 66%
18:00 +8°C° 0.1 mm 5 mps 748 mmHg 71%
19:00 +7°C° 0.1 mm 4 mps 749 mmHg 76%
20:00 +6°C° 0.1 mm 4 mps 749 mmHg 81%
21:00 +7°C° 0 mm 3 mps 750 mmHg 83%
22:00 +5°C° 0 mm 3 mps 750 mmHg 85%
23:00 +5°C° 0 mm 3 mps 750 mmHg 87%
Show more